Theta_e
323 318 317 311 297 293 289 294 294 295 295 297 300 299 299 300 300 295 311 321 326 328 332 336 342 342 343 345 345 345 345 345 345 342 341 341 340 340 339 337 338 339 341 342 342 340 337 338 340
317 317 312 303 294 288 290 294 295 296 298 299 299 299 297 298 304 307 311 321 325 326 327 331 339 340 340 339 339 340 339 339 338 340 337 337 335 335 335 333 333 334 336 338 338 335 334 333 334
315 314 306 298 291 289 289 293 294 296 297 297 296 298 299 300 303 307 309 318 322 321 323 328 337 338 338 337 338 338 336 336 336 334 334 333 332 330 328 326 325 325 329 331 328 326 325 325 327
309 305 299 293 291 294 293 294 296 296 296 297 297 297 298 303 305 308 311 317 317 318 321 329 335 336 335 335 336 335 336 334 331 330 329 327 325 323 322 322 321 321 323 322 322 321 320 320 320
305 301 294 290 290 292 294 296 297 296 295 296 297 294 296 301 305 307 313 315 315 315 318 323 333 331 331 332 332 331 333 327 326 324 323 321 320 320 320 319 319 319 319 319 319 318 317 317 317
299 297 290 288 290 295 294 297 296 296 295 295 295 293 297 300 303 307 310 310 313 313 315 319 326 329 328 328 327 327 327 324 322 320 320 319 318 318 318 317 317 317 317 317 317 316 316 316 316
298 295 291 290 293 294 295 297 295 296 295 296 296 295 296 297 301 303 307 308 309 310 311 312 315 321 325 326 324 323 322 321 320 318 317 316 315 313 315 314 315 316 316 316 315 314 312 313 313
299 294 290 289 290 293 295 296 296 296 297 297 300 295 295 298 300 299 302 304 306 306 307 307 308 310 310 314 322 321 320 318 317 315 315 314 312 310 311 311 312 314 314 313 312 310 309 308 309
300 290 288 290 292 293 295 294 296 296 295 296 300 297 297 299 298 295 294 297 301 304 304 304 304 303 304 306 312 317 317 316 315 313 312 306 299 300 302 309 310 310 309 309 309 307 305 303 304
297 289 291 295 295 293 295 295 295 293 294 294 296 296 298 299 297 295 293 294 299 300 300 302 301 300 300 305 305 303 304 302 300 300 300 297 296 297 301 305 306 304 304 304 305 303 301 297 294
297 292 296 298 298 297 296 294 297 294 293 295 296 297 297 295 296 296 295 295 297 299 299 301 300 299 298 300 299 297 297 296 297 296 296 296 296 296 294 293 292 292 295 291 293 292 292 291 292
294 298 298 300 300 297 295 296 295 295 300 299 298 297 296 295 296 296 295 295 293 294 296 298 298 298 296 295 297 295 295 294 294 294 296 293 292 291 291 291 290 289 289 288 289 289 290 290 291
296 297 299 300 299 297 298 296 295 295 298 298 299 297 296 297 297 297 298 297 294 293 295 296 296 297 297 294 295 294 294 295 294 293 295 293 291 290 290 289 289 288 288 288 287 288 289 289 290
295 297 297 297 298 297 297 295 296 300 297 298 298 297 295 297 297 296 294 295 294 295 295 295 296 296 296 294 294 295 294 294 293 291 292 292 290 289 289 288 288 287 287 287 287 287 287 287 289
296 294 294 296 296 295 296 293 293 301 296 297 297 296 297 296 297 297 298 297 297 296 296 294 296 295 295 295 295 294 294 294 292 290 291 291 290 289 288 288 287 287 287 287 286 287 287 286 287
291 290 287 292 294 295 295 290 295 298 296 297 296 295 295 297 297 299 299 298 297 297 295 295 296 295 295 295 294 294 293 293 292 290 289 290 289 288 287 286 286 286 286 286 285 285 285 285 285
286 284 285 290 295 293 292 290 295 296 294 295 296 294 295 296 296 298 299 298 297 298 296 295 295 294 295 294 294 293 292 292 291 289 288 288 288 288 286 286 286 286 285 285 286 284 284 283 284
284 283 286 287 291 291 289 291 296 296 293 293 294 292 292 295 298 301 298 299 298 298 297 296 294 294 294 293 291 290 290 289 290 289 288 287 287 287 286 285 285 285 284 284 284 283 284 284 283
286 285 285 288 292 290 290 291 294 298 294 292 294 297 298 296 300 299 297 297 297 296 295 294 293 293 293 292 290 290 290 289 287 287 288 287 287 286 285 284 284 284 283 283 283 283 283 282 282
289 288 287 291 293 289 290 290 294 294 296 298 297 296 297 298 300 295 294 294 295 295 294 293 293 292 293 293 293 291 290 286 289 288 288 287 287 286 285 284 283 283 282 283 283 283 281 282 282
288 287 288 288 289 288 286 287 288 292 295 297 296 297 298 299 300 297 293 292 293 293 292 292 293 292 293 293 290 285 285 284 284 285 285 286 286 285 285 284 283 282 282 281 281 281 281 280 280
287 291 290 287 284 283 285 282 285 289 291 293 294 297 297 298 299 297 292 291 291 293 292 292 292 292 292 291 289 288 289 287 288 287 285 284 285 285 284 283 283 282 282 281 281 282 281 280 279
290 289 288 286 283 282 281 281 285 288 287 291 294 295 296 298 294 293 292 294 293 291 291 291 291 292 291 290 290 289 288 289 284 283 284 284 284 284 283 283 282 281 281 281 281 280 280 280 279
289 287 285 283 282 279 283 283 283 284 288 290 294 295 296 298 296 293 292 291 289 288 290 290 289 290 289 289 289 288 288 284 283 284 284 283 283 283 282 282 281 280 280 280 280 280 280 280 279
287 285 278 275 274 278 284 280 288 289 290 291 293 294 295 296 291 291 291 290 288 287 288 289 289 289 288 288 288 288 288 285 285 284 285 283 283 282 282 281 280 280 280 280 280 279 279 279 278
286 286 281 273 278 282 281 279 285 291 293 293 293 294 292 291 292 292 290 291 290 289 288 289 288 288 288 288 288 288 287 286 286 284 285 284 284 283 282 281 280 279 279 279 279 278 278 278 278
283 282 288 281 273 273 282 285 289 288 290 291 291 290 290 290 291 291 289 289 288 287 288 288 288 289 288 288 288 287 287 286 286 284 284 284 283 282 280 280 279 279 278 278 277 277 277 277 278
286 287 281 280 275 274 280 279 285 287 290 289 289 289 289 290 289 290 290 289 288 288 288 288 289 289 288 287 287 287 286 285 285 281 282 282 281 281 279 279 279 278 277 277 276 276 276 276 276
283 283 283 283 282 280 278 282 288 287 287 288 288 290 290 289 291 291 291 291 289 288 287 288 288 288 287 286 287 286 285 284 284 282 282 280 280 280 279 279 278 277 276 276 275 275 275 275 275
286 286 287 282 281 280 282 283 294 294 294 293 294 291 291 291 292 292 291 292 290 289 288 288 288 287 288 287 286 285 284 283 283 282 281 280 280 279 279 278 277 276 276 275 275 274 274 273 273
Wind_Speed
4 3 2 5 5 5 4 6 1 2 1 2 1 3 7 2 6 6 2 7 11 9 7 7 12 13 11 11 12 12 11 13 13 12 11 11 11 10 10 10 9 9 10 10 12 10 9 9 9
3 2 5 3 5 2 6 6 6 4 4 5 2 4 1 4 3 5 6 9 11 9 7 7 12 13 12 10 10 10 9 8 8 11 9 10 10 10 10 10 10 9 8 9 11 10 10 10 10
2 3 4 4 3 4 5 5 6 2 3 4 2 1 5 4 3 10 6 11 10 8 7 7 11 14 13 11 10 10 10 9 9 9 11 11 11 11 11 10 10 10 10 11 10 10 10 10 11
3 5 5 4 6 8 6 5 5 5 2 1 3 2 2 2 7 9 10 12 11 7 7 9 14 15 14 14 14 13 13 13 12 12 13 12 11 11 10 11 11 11 11 10 11 11 10 11 12
4 3 3 1 5 6 6 3 9 5 3 4 5 4 4 3 1 9 14 11 13 7 7 7 13 15 15 15 16 15 16 15 14 13 13 12 12 11 11 11 11 11 12 11 11 11 11 11 11
4 4 3 3 6 5 4 6 5 5 3 2 3 2 5 1 8 9 9 9 9 9 7 6 10 13 15 16 16 16 16 15 14 14 14 14 13 12 11 11 11 11 11 11 12 12 13 13 12
5 4 4 4 5 5 5 8 5 6 5 6 2 6 2 3 7 8 8 8 8 7 7 6 6 8 11 13 14 15 15 14 14 14 14 14 14 12 11 11 11 11 11 12 12 13 12 12 12
6 5 3 4 3 6 2 3 1 6 8 1 8 7 7 7 9 7 7 7 7 7 6 7 6 5 5 6 11 13 14 15 15 15 14 13 13 12 12 10 11 11 12 12 12 12 12 12 12
3 4 3 6 3 4 1 3 1 2 2 3 7 4 2 7 11 8 5 5 5 7 8 7 7 6 6 5 6 11 14 14 14 12 10 9 5 6 7 9 12 11 12 11 11 11 11 11 12
5 4 9 6 3 4 3 5 4 2 4 5 5 1 4 10 13 13 11 14 12 12 9 10 8 7 6 5 6 6 6 5 5 5 7 5 5 5 5 7 11 11 10 10 11 11 11 9 4
5 7 6 6 4 4 3 3 5 6 8 9 11 8 9 7 12 14 15 15 20 13 9 12 11 9 8 6 4 3 3 3 3 6 6 5 4 4 4 3 3 3 7 3 5 5 4 6 4
3 9 7 6 4 2 4 2 5 10 19 8 13 5 10 12 17 18 17 17 13 14 15 13 12 11 8 5 6 5 4 3 3 4 6 5 3 4 4 3 4 4 2 4 3 2 4 5 5
6 6 7 7 8 5 5 11 7 13 14 9 9 8 13 15 18 16 15 11 10 13 15 15 13 13 11 9 5 5 5 4 5 4 5 5 5 5 4 4 4 4 3 3 3 3 4 4 5
2 5 7 6 9 5 7 7 6 21 4 12 11 14 12 17 21 14 11 15 15 15 16 15 16 13 12 10 10 8 5 5 5 5 5 7 5 5 5 5 4 3 3 2 3 3 4 3 4
3 8 7 8 6 9 6 9 13 26 1 10 12 12 10 19 12 22 23 20 20 18 15 18 18 15 15 14 11 8 7 7 6 5 6 7 6 6 6 5 4 4 4 5 3 3 3 4 4
2 1 5 1 7 5 9 15 13 14 7 17 13 12 11 14 20 21 17 17 15 14 19 18 16 18 16 14 11 8 8 7 6 6 5 7 7 7 6 5 4 4 3 3 3 3 3 3 4
2 6 8 13 10 5 7 11 10 6 9 13 14 11 12 14 13 16 17 17 16 20 18 18 19 20 18 13 10 8 9 8 7 6 5 6 6 6 5 5 5 5 4 3 2 3 2 3 4
9 6 6 8 4 4 6 17 16 10 7 13 13 11 11 14 22 17 14 15 16 17 18 18 16 17 16 10 6 4 6 5 6 6 6 7 6 7 6 5 5 4 4 3 2 3 3 2 3
2 6 7 9 10 5 11 16 19 23 9 12 16 20 18 17 24 12 11 13 14 13 16 18 19 18 15 11 10 7 11 7 5 6 9 9 7 7 7 5 5 4 4 4 3 3 4 4 4
12 17 20 15 17 7 16 23 19 11 21 21 19 20 20 19 20 8 8 9 14 17 18 19 20 20 17 13 11 7 8 3 7 7 8 9 9 8 7 7 6 6 4 5 3 3 3 2 4
14 14 19 17 6 6 10 19 12 14 17 21 15 19 17 22 22 12 10 10 10 15 19 20 21 21 18 14 9 4 5 3 3 5 6 8 8 8 8 7 6 6 5 5 4 4 5 4 1
19 13 13 9 4 13 4 27 6 8 13 11 15 17 19 23 18 13 9 9 13 16 14 17 18 19 17 17 15 14 12 10 9 8 5 6 9 9 8 8 7 6 4 6 5 4 4 5 4
18 4 6 3 4 6 3 7 3 8 8 12 12 16 17 18 13 13 11 14 11 12 15 16 17 17 16 17 17 13 12 9 4 5 10 9 7 9 8 7 7 7 5 5 6 6 6 4 4
3 4 3 5 1 12 11 10 3 7 10 7 10 14 15 18 12 10 7 7 7 7 12 14 17 16 16 17 16 18 19 11 8 9 10 9 7 7 9 8 7 6 6 6 5 5 6 5 5
3 6 4 4 1 15 9 8 21 8 8 11 14 14 13 14 7 7 8 9 10 13 13 12 15 17 15 19 19 20 18 15 16 13 11 11 9 8 11 10 9 6 6 5 5 5 5 6 5
12 12 10 9 13 21 7 13 13 12 12 12 10 13 9 7 7 9 8 9 11 13 13 14 15 15 17 19 20 16 16 11 11 13 10 10 11 10 10 10 9 8 8 7 7 4 3 5 5
3 7 11 3 2 2 9 16 9 5 8 9 11 12 13 10 9 9 7 7 8 9 14 17 15 15 16 16 14 15 14 14 14 11 11 10 8 8 10 11 10 9 9 9 8 5 6 5 4
7 3 2 1 5 9 14 7 16 7 9 8 10 12 10 7 3 2 6 8 7 7 9 12 16 21 17 15 15 14 15 14 12 9 13 11 9 11 12 13 12 10 9 9 8 5 5 6 6
2 5 6 3 5 14 16 17 8 10 4 8 8 8 10 6 7 7 8 8 8 8 10 13 14 15 13 14 15 15 15 14 13 12 13 13 13 14 15 15 14 13 11 9 8 7 7 7 7
5 15 14 12 15 7 10 14 27 24 19 15 19 7 7 6 9 8 8 8 8 11 11 16 14 15 18 16 15 17 13 14 15 15 15 14 15 14 14 14 14 13 12 11 10 10 9 9 9
Wind_Direction
317 355 60 39 44 57 275 268 238 175 135 254 120 154 181 122 165 208 271 145 141 147 147 148 156 157 152 135 136 131 129 125 112 107 97 89 81 77 79 75 65 53 45 57 52 50 41 33 31
325 97 42 79 85 27 270 254 204 210 177 140 117 103 81 219 139 147 131 186 148 147 147 154 164 166 155 134 129 134 135 133 128 107 104 104 104 97 84 78 73 66 62 59 52 46 38 32 25
275 51 84 100 121 199 231 239 211 221 179 181 117 308 161 210 166 175 215 153 143 145 152 159 167 164 157 147 142 135 130 137 130 120 114 104 104 99 95 89 77 66 66 62 53 42 34 28 22
62 12 31 95 230 258 233 236 197 154 316 23 129 232 297 179 166 181 149 140 139 151 151 161 165 157 151 148 143 144 152 136 132 126 118 110 104 97 92 87 82 76 71 62 53 47 38 29 22
37 59 63 300 253 256 251 206 165 176 197 196 155 250 246 272 138 139 149 146 145 151 155 160 164 159 155 150 148 148 142 141 138 132 127 121 111 102 97 90 83 79 74 67 63 55 49 46 41
43 96 69 236 249 257 255 174 176 194 208 153 165 171 246 44 138 164 147 143 147 151 159 167 167 166 161 158 155 153 150 148 146 141 132 127 122 113 106 99 91 91 84 78 67 59 55 49 46
114 94 218 233 255 294 228 152 191 200 179 236 167 170 263 209 205 156 151 135 143 149 149 159 162 167 166 161 158 158 156 154 150 143 137 130 123 118 112 108 101 103 88 80 74 68 54 50 44
111 101 283 256 251 268 248 198 138 168 232 83 163 230 253 215 172 140 130 137 150 159 162 165 160 151 153 160 160 162 161 159 156 149 143 138 129 121 117 105 99 95 85 79 75 68 59 48 42
93 67 239 247 222 262 287 240 264 335 155 226 208 178 295 124 130 130 139 163 171 188 180 174 169 167 166 161 166 162 163 161 160 155 145 124 131 124 113 110 97 92 85 78 74 66 61 54 43
111 145 225 219 217 226 239 205 225 209 225 241 275 266 85 136 161 173 183 188 196 196 194 181 175 175 168 174 167 159 162 155 148 156 143 142 139 132 115 97 93 84 73 72 66 59 51 43 39
187 213 222 262 245 201 227 240 202 195 253 214 212 219 163 170 186 193 202 199 200 194 188 190 181 177 173 177 166 171 163 160 165 162 156 153 138 118 112 103 95 83 64 48 53 42 40 33 32
212 237 223 262 249 286 248 257 239 196 243 205 226 180 167 188 196 201 206 206 190 189 191 184 183 179 182 160 175 175 166 170 175 178 165 146 143 135 134 123 120 98 87 75 62 44 43 32 26
220 250 236 254 277 259 285 243 243 259 247 240 239 185 193 202 210 215 215 213 194 196 193 190 181 182 180 175 171 175 179 176 177 174 178 156 159 153 144 134 126 126 119 110 76 59 48 30 11
259 272 272 268 257 241 215 271 137 269 230 235 242 231 209 208 213 212 210 211 199 200 197 185 188 183 176 181 180 183 174 172 171 179 183 179 158 155 148 140 131 130 137 126 103 77 54 34 13
310 306 304 235 231 234 167 287 224 246 171 270 247 244 233 220 209 216 216 211 202 204 189 188 185 180 181 184 182 177 179 171 178 178 180 175 170 167 150 147 151 159 154 129 124 104 76 45 11
316 340 308 264 138 245 147 261 243 250 215 257 259 256 240 246 221 228 222 217 205 194 191 186 185 184 184 184 179 179 175 172 178 175 177 179 171 160 153 146 155 152 134 129 111 72 60 31 10
284 237 221 306 208 147 185 253 260 235 199 253 265 257 254 261 249 231 214 208 196 196 189 187 185 183 183 178 175 172 170 174 181 171 176 176 171 164 147 154 161 157 139 110 103 71 74 31 350
218 220 246 244 245 192 231 252 274 270 203 239 261 263 257 256 252 247 208 208 204 198 190 185 181 178 175 165 147 144 169 177 175 178 177 171 174 167 158 154 156 149 133 125 103 102 55 48 338
202 221 239 254 268 233 232 246 250 267 258 248 250 258 253 245 257 238 211 201 199 193 183 181 174 176 166 167 167 174 192 186 184 180 180 176 175 171 162 160 156 159 153 162 143 109 83 37 343
246 258 262 271 263 206 261 258 261 250 263 258 253 256 252 253 262 239 214 194 191 190 186 178 180 174 178 175 178 179 172 183 186 183 183 180 179 174 165 162 163 165 149 140 133 142 117 82 7
227 238 253 259 305 235 286 273 256 248 255 265 251 245 255 251 257 251 206 206 189 187 186 181 180 176 178 172 150 101 92 75 141 188 185 190 178 174 168 169 163 166 152 160 169 165 146 138 84
261 226 256 260 302 278 112 293 229 243 244 245 250 256 248 256 258 260 203 201 195 198 182 179 176 175 178 169 171 173 186 186 199 190 175 177 179 180 175 171 165 164 161 165 173 176 148 128 136
253 225 252 226 222 322 208 268 145 200 249 249 244 242 255 255 234 238 217 211 196 169 177 174 172 177 174 176 182 182 193 194 148 148 166 179 183 179 177 173 167 171 171 168 166 167 157 138 135
131 88 26 61 89 266 191 203 6 175 211 252 254 253 246 257 258 224 220 157 158 150 167 170 174 180 174 180 186 191 197 179 164 173 181 185 182 185 181 175 170 169 170 170 170 175 162 141 129
153 101 294 314 42 253 185 224 258 272 231 219 240 244 247 257 216 210 190 175 158 173 172 174 180 187 178 185 192 195 197 189 188 180 184 180 183 189 191 174 171 173 172 167 150 161 171 154 152
209 178 190 205 258 273 139 247 265 223 233 236 261 265 290 273 231 218 213 182 184 181 177 180 186 191 194 193 200 197 196 189 196 188 186 190 194 192 179 178 165 162 162 160 163 166 179 154 150
182 188 229 309 67 22 244 269 282 234 293 294 300 292 269 261 242 231 176 203 169 187 193 186 187 200 201 203 197 202 197 197 201 185 182 182 177 168 163 171 169 168 166 166 165 171 174 165 149
186 191 63 220 193 244 268 260 266 300 284 286 351 326 304 319 309 240 204 207 207 199 203 202 199 203 197 199 199 200 201 196 192 172 180 177 167 162 164 170 168 169 169 167 166 168 171 162 150
169 228 223 201 193 248 257 268 239 197 156 334 316 321 293 299 265 223 224 221 211 194 196 208 212 207 201 197 197 197 199 193 185 186 182 174 167 171 174 174 167 169 171 172 168 167 172 169 148
256 257 232 238 243 222 253 257 282 264 282 289 283 269 262 249 250 231 229 229 214 216 208 211 211 206 208 201 196 202 195 188 187 191 184 171 175 173 172 169 169 170 171 170 174 172 179 176 159